TimeCST,TemperatureF,Dew PointF,Humidity,Sea Level PressureIn,VisibilityMPH,Wind Direction,Wind SpeedMPH,Gust SpeedMPH,PrecipitationIn,Events,Conditions,WindDirDegrees,DateUTC
12:53 AM,42.1,34.0,73,30.42,10.0,NE,3.5,-,N/A,,Clear,50,2012-11-14 06:53:00
1:53 AM,42.1,34.0,73,30.42,10.0,ENE,4.6,-,N/A,,Clear,70,2012-11-14 07:53:00
2:53 AM,42.1,33.1,70,30.42,10.0,East,4.6,-,N/A,,Clear,90,2012-11-14 08:53:00
3:53 AM,39.9,30.9,70,30.42,10.0,East,3.5,-,N/A,,Clear,100,2012-11-14 09:53:00
4:53 AM,39.9,30.0,68,30.43,10.0,Calm,Calm,-,N/A,,Clear,0,2012-11-14 10:53:00
5:53 AM,37.0,30.0,76,30.44,10.0,Calm,Calm,-,N/A,,Clear,0,2012-11-14 11:53:00
6:53 AM,37.0,30.0,76,30.44,10.0,Calm,Calm,-,N/A,,Clear,0,2012-11-14 12:53:00
7:53 AM,39.0,33.1,79,30.47,10.0,Calm,Calm,-,N/A,,Clear,0,2012-11-14 13:53:00
8:53 AM,44.1,32.0,63,30.46,10.0,ENE,5.8,-,N/A,,Clear,60,2012-11-14 14:53:00
9:53 AM,46.9,33.1,59,30.47,10.0,NE,4.6,-,N/A,,Clear,50,2012-11-14 15:53:00
10:53 AM,52.0,32.0,47,30.45,10.0,Variable,3.5,-,N/A,,Clear,0,2012-11-14 16:53:00
11:53 AM,55.0,28.9,37,30.43,10.0,Calm,Calm,-,N/A,,Clear,0,2012-11-14 17:53:00
12:53 PM,57.9,25.0,28,30.39,10.0,North,3.5,-,N/A,,Clear,360,2012-11-14 18:53:00
1:53 PM,57.9,23.0,26,30.36,10.0,Calm,Calm,-,N/A,,Clear,0,2012-11-14 19:53:00
2:53 PM,60.1,24.1,25,30.34,10.0,Calm,Calm,-,N/A,,Clear,0,2012-11-14 20:53:00
3:53 PM,59.0,23.0,25,30.34,10.0,Calm,Calm,-,N/A,,Clear,0,2012-11-14 21:53:00
4:53 PM,55.9,23.0,28,30.32,10.0,Calm,Calm,-,N/A,,Clear,0,2012-11-14 22:53:00
5:53 PM,51.1,26.1,38,30.32,10.0,Calm,Calm,-,N/A,,Clear,0,2012-11-14 23:53:00
6:53 PM,45.0,28.9,53,30.32,10.0,Calm,Calm,-,N/A,,Clear,0,2012-11-15 00:53:00
7:53 PM,42.1,30.0,62,30.33,10.0,Calm,Calm,-,N/A,,Clear,0,2012-11-15 01:53:00
8:53 PM,39.9,30.0,68,30.32,10.0,NE,3.5,-,N/A,,Clear,50,2012-11-15 02:53:00
9:53 PM,41.0,32.0,70,30.32,10.0,Calm,Calm,-,N/A,,Clear,0,2012-11-15 03:53:00
10:53 PM,39.9,33.1,77,30.32,10.0,ENE,4.6,-,N/A,,Clear,70,2012-11-15 04:53:00
11:53 PM,39.0,33.1,79,30.33,10.0,ENE,4.6,-,N/A,,Clear,60,2012-11-15 05:53:00